St. HILARI SACALM (La Selva)





Hora UTC 03:55
Temperatura 13.3 ºC
Sòl 15 cm 10.0 ºC
Humitat 91.0 %
Pressió 1014.1 hPa
Pluja 0.0 mm
Velocitat vent 0.0 km/h
Direcció vent NNE
Radiació solar 0.1 W/m²

Dades diàries 2024-05-30



Hora UTC (hivern +1h; estiu +2h)
Temperatura (ºC) Humitat (%) Pressió (hPa) Velocitat vent (km/h) Precipitació (mm) Radiació solar (W/m²)
Hora UTC Aire Sòl 15 cm Humitat Pressió Vel. Dir. Vel. Max Dir. Intent. màx 5 min. Rad. Sol.
00:05 15.5 13.4 80.4 1016.1 0.0 NNE 0.0 SSW 0.0 0.1
00:10 15.4 13.2 80.3 1016.0 0.0 NNE 0.0 SSW 0.0 0.1
00:15 15.3 13.0 80.9 1016.0 0.0 NNE 0.0 SSW 0.0 0.1
00:20 15.2 12.8 81.6 1016.0 0.0 NNE 0.0 SW 0.0 0.1
00:25 15.1 12.7 81.7 1016.0 0.0 NNE 0.0 SW 0.0 0.1
00:30 15.0 12.6 82.2 1016.0 0.0 NNE 0.0 SSW 0.0 0.1
00:35 14.9 12.5 82.6 1016.0 0.0 NNE 0.0 SSW 0.0 0.1
00:40 14.8 12.3 82.7 1015.9 0.0 NNE 0.0 SW 0.0 0.1
00:45 14.8 12.3 82.5 1015.9 0.0 NNE 0.0 SSW 0.0 0.1
00:50 14.7 12.2 82.7 1015.9 0.0 NNE 0.0 SSW 0.0 0.1
00:55 14.6 12.1 83.3 1015.9 0.0 NNE 0.0 SSW 0.0 0.1
01:00 14.5 12.1 83.2 1015.8 0.0 NNE 0.0 SSW 0.0 0.1
01:05 14.4 12.1 83.8 1015.7 0.0 NNE 0.0 SSW 0.0 0.1
01:10 14.3 12.1 84.0 1015.7 0.0 NNE 0.0 S 0.0 0.1
01:15 14.3 12.0 84.7 1015.6 0.0 NNE 0.0 SW 0.0 0.2
01:20 14.2 11.8 84.7 1015.6 0.0 NNE 0.0 SSW 0.0 0.2
01:25 14.1 11.7 84.7 1015.5 0.0 NNE 0.0 WSW 0.0 0.1
01:30 14.1 11.7 84.8 1015.5 0.0 NNE 0.0 S 0.0 0.1
01:35 14.1 11.7 85.0 1015.5 0.0 NNE 0.0 SSW 0.0 0.1
01:40 14.0 11.7 84.9 1015.4 0.0 NNE 0.0 SSW 0.0 0.1
01:45 14.0 11.6 85.2 1015.4 0.0 NNE 0.0 SW 0.0 0.1
01:50 13.9 11.6 85.2 1015.3 0.0 NNE 0.0 SSW 0.0 0.1
01:55 13.9 11.5 85.1 1015.2 0.0 NNE 0.0 S 0.0 0.1
02:00 13.9 11.5 85.1 1015.2 0.0 NNE 0.0 SSW 0.0 0.1
02:05 13.8 11.4 85.3 1015.1 0.0 NNE 0.0 SW 0.0 0.1
02:10 13.8 11.3 85.6 1015.1 0.0 NNE 0.0 SSW 0.0 0.1
02:15 13.7 11.3 85.9 1015.0 0.0 NNE 0.0 WSW 0.0 0.1
02:20 13.6 11.3 86.3 1015.0 0.0 NNE 0.0 S 0.0 0.1
02:25 13.7 11.2 86.2 1015.0 0.0 NNE 0.0 SSW 0.0 0.2
02:30 13.6 11.2 86.4 1014.9 0.0 NNE 0.0 S 0.0 0.1
02:35 13.6 11.2 86.4 1014.9 0.0 NNE 0.0 S 0.0 0.2
02:40 13.7 11.2 86.1 1014.8 0.0 NNE 0.0 SSW 0.0 0.1
02:45 13.5 11.1 86.2 1014.8 0.0 NNE 0.0 SSW 0.0 0.2
02:50 13.4 11.0 87.1 1014.7 0.0 NNE 0.0 SSE 0.0 0.1
02:55 13.3 10.9 87.2 1014.7 0.0 NNE 0.0 S 0.0 0.1
03:00 13.2 10.8 88.0 1014.6 0.0 NNE 0.0 SW 0.0 0.1
03:05 13.2 10.7 88.0 1014.6 0.0 NNE 0.0 SW 0.0 0.1
03:10 13.2 10.7 88.1 1014.5 0.0 NNE 0.0 SSW 0.0 0.1
03:15 13.1 10.6 87.9 1014.5 0.0 NNE 0.0 SSW 0.0 0.1
03:20 13.0 10.5 88.5 1014.5 0.0 NNE 0.0 SSW 0.0 0.2
03:25 12.9 10.4 88.9 1014.4 0.0 NNE 0.0 SW 0.0 0.1
03:30 13.0 10.5 88.9 1014.3 0.0 NNE 0.0 SSW 0.0 0.1
03:35 13.0 10.5 89.0 1014.3 0.0 NNE 0.0 SE 0.0 0.1
03:40 13.2 10.7 90.4 1014.2 0.0 NNE 0.0 ESE 0.0 0.1
03:45 13.3 10.7 89.6 1014.1 0.0 NNE 0.0 SE 0.0 0.1
03:50 13.3 10.4 90.3 1014.1 0.0 NNE 0.0 ESE 0.0 0.1
03:55 13.3 10.0 91.0 1014.1 0.0 NNE 0.0 E 0.0 0.1
Màxima 15.5 13.4 91.0 1016.1 0.0 NNE 0.0 E 0.0 0.2
Mínima 12.8 10.0 80.3 1014.1
Total 0.0